Location: Bratislava
(48.1500°N, 17.1170°E)
Time: 05:18:55
(UTC+02:00)

BlueWalker 3 - Pass Details

Date: 15 May 2026
Orbit: 447 x 456 km, 53.2° (Epoch: 10 June)

Event Time Altitude Azimuth Distance (km) Brightness Sun altitude
Exits shadow 01:41:41 57° 68° (ENE) 529 2.1 -22.0°
Drops below altitude 10° 01:44:35 10° 63° (ENE) 1,576 5.0 -21.8°
Sets 01:46:43 0° 63° (ENE) 2,451 6.0 -21.7°
